Location: Baar
(47.1963°N, 8.5295°E)
Time: 10:47:33
(UTC+00:00)

Daily predictions for brighter satellites

Satellite Brightness Start Highest point End
(mag) Time Altitude Azimuth Time Altitude Azimuth Time Altitude Azimuth
Cosmos 2082 Rocket 2.6 16:02:43 10° S 16:08:06 47° ESE 16:13:31 10° NE
Cosmos 540 Rocket 3.5 16:04:02 10° S 16:09:06 67° ESE 16:14:11 10° NNE
Sich 1 3.3 16:05:05 10° N 16:09:15 45° ENE 16:13:24 10° SSE
Cosmos 1500 Rocket 3.7 16:04:54 10° N 16:09:21 85° W 16:13:44 10° S
ARGOS 4.5 16:07:16 10° E 16:10:45 18° ENE 16:14:12 10° NNE
SJ-7 4.5 16:08:15 10° SSE 16:12:28 83° ENE 16:16:43 10° NNW
FengYun 1-2 T 4.3 16:08:29 10° SSE 16:13:55 58° ENE 16:19:20 10° N
COSMOS 2455 3.0 16:08:40 10° SSW 16:14:37 66° ESE 16:20:37 10° NE
SMAP 3.4 16:12:13 10° SE 16:16:38 45° ENE 16:21:05 10° N
NOAA 6 4.2 16:13:12 10° SE 16:18:08 49° ENE 16:23:04 10° N
Cosmos 1833 Rocket 3.0 16:15:49 10° SW 16:21:25 70° WNW 16:27:04 10° NNE
Cosmos 1933 3.3 16:17:24 10° S 16:21:26 79° E 16:25:28 10° NNE
Cosmos 1805 Rocket 3.5 16:17:27 10° N 16:21:49 78° E 16:26:09 10° SSE
Cosmos 2278 3.8 16:16:40 10° NNW 16:22:19 58° ENE 16:27:54 10° SE
Cosmos 2333 Rocket 4.0 16:21:41 10° N 16:23:40 12° NNE 16:25:40 10° NE
Cosmos 1602 3.7 16:20:49 10° N 16:24:42 88° E 16:28:36 10° S
CZ-4B DEB 4.4 16:22:04 10° SE 16:27:19 47° ENE 16:32:33 10° N
USA 305 3.5 16:25:07 10° NW 16:29:07 38° NNE 16:32:51 11° E
CZ-2C R/B 3.8 16:26:37 10° NE 16:30:28 21° E 16:34:16 10° SE
SL-24 R/B - RUBIN 2 4.0 16:27:13 10° NW 16:31:41 66° WSW 16:35:57 10° SSE
Cosmos 2219 Rocket 4.1 16:30:33 10° NNE 16:31:44 11° NNE 16:32:55 10° NE
CZ-4B R/B 2.9 16:28:44 10° S 16:32:40 78° WSW 16:36:27 10° NNW
Cosmos 1500 3.0 16:31:14 10° N 16:34:59 74° E 16:38:42 10° SSE
Meteor 1-14 Rocket 4.4 16:29:27 10° N 16:35:14 55° ENE 16:41:04 10° SSE
Cosmos 44 Rocket 3.4 16:31:35 10° NNW 16:36:27 54° NE 16:41:07 10° SE
COSMOS 2406 3.6 16:35:21 10° SW 16:41:04 65° WNW 16:46:46 10° NNE
Cosmos 1814 Rocket 4.0 16:36:50 10° S 16:41:57 61° ESE 16:47:04 10° NNE
Cosmos 921 Rocket 4.0 16:39:44 10° SSE 16:43:16 27° E 16:45:57 15° NE
Cosmos 1570 Rocket 4.1 16:43:41 10° S 16:48:49 60° ESE 16:53:59 10° NNE
MOS 1-B Rocket 4.4 16:46:06 10° NNE 16:51:59 47° E 16:58:41 10° S
CZ-4B R/B 3.5 16:48:23 10° SE 16:53:24 42° ENE 16:58:23 10° N
Cosmos 2298 Rocket 4.2 16:50:04 10° NNW 16:55:14 48° ENE 17:00:22 10° SE
CZ-2D R/B 3.3 16:51:55 10° SSE 16:55:39 56° ENE 16:59:23 10° N
USA 267 3.3 16:50:26 14° NE 16:56:08 76° SE 17:02:40 10° SW
MOS 1-B 4.3 16:52:33 10° SSE 16:58:13 62° ENE 17:03:57 10° N
Cosmos 1939 Rocket 3.4 16:54:17 10° S 16:58:20 63° W 17:02:22 10° NNW
ATLAS CENTAUR R/B 3.1 16:49:07 10° WSW 16:58:27 60° NW 17:01:31 18° NE
Cosmos 1151 Rocket 2.9 16:56:58 10° S 17:01:17 75° E 17:05:40 10° NNE
USA 306 3.2 16:57:26 10° NW 17:01:34 48° NNE 17:03:51 23° E
COSMO-SKYMED 1 3.3 16:59:10 17° NE 17:01:52 32° E 17:05:46 10° SSE
Cosmos 1633 Rocket 2.9 16:57:33 10° N 17:01:57 74° E 17:06:20 10° SSE
Cosmos 1782 3.6 16:59:33 10° SSW 17:03:27 53° WNW 17:07:21 10° N
APEX 3.8 17:00:25 10° S 17:03:43 30° ESE 17:04:24 27° E
Cosmos 1666 2.5 16:59:58 10° N 17:03:43 88° E 17:07:25 10° S
Meteor 2-6 Rocket 4.3 16:58:45 10° S 17:04:19 58° E 17:09:47 10° NNE
Cosmos 2360 Rocket 3.1 17:01:12 10° N 17:06:02 28° NE 17:08:17 22° E
ISS -1.1 17:04:11 10° W 17:06:53 22° SW 17:09:34 10° SSE
PAYLOAD B 4.2 17:02:41 10° SSE 17:08:17 78° ENE 17:13:53 10° NNW
Cosmos 1900 4.2 17:03:33 10° SSW 17:08:24 80° ESE 17:11:52 19° NE
YAOGAN 1 4.3 17:11:21 16° NNE 17:11:21 16° NNE 17:12:35 10° NNE
Cosmos 1818 3.6 17:06:30 10° NW 17:12:01 86° SW 17:17:29 10° SSE
CZ-2C R/B 3.7 17:14:11 10° SSW 17:16:40 15° S 17:19:05 10° SE
Cosmos 2279 Rocket 4.0 17:11:07 10° S 17:17:20 90° W 17:23:35 10° N
ATLAS 5 CENTAUR R/B 2.1 17:11:52 10° NW 17:18:41 50° NNE 17:19:39 37° E
Meteor 2-15 4.4 17:13:42 10° S 17:19:42 62° E 17:25:41 10° NNE
Cosmos 2266 Rocket 4.0 17:14:44 10° N 17:21:05 60° ENE 17:27:24 10° SSE
ERBS 4.3 17:19:01 10° NNW 17:20:46 16° N 17:20:46 16° N
USA 307 3.0 17:17:59 10° NW 17:22:11 55° NNE 17:23:33 37° E
CZ-4C R/B 3.6 17:15:51 10° NW 17:23:04 62° WSW 17:31:23 10° SSE
SL-08 RB Rocket 4.0 17:20:33 10° SE 17:24:54 42° ENE 17:29:14 10° N
Lacrosse 5 rocket 1.7 17:21:25 10° WNW 17:25:18 62° SW 17:28:57 13° SE
Cosmos 2208 Rocket 4.1 17:22:44 10° SSW 17:28:09 81° WNW 17:32:51 14° NNE
ATLAS 2AS CENTAUR R/B 4.0 17:23:02 10° NW 17:28:54 24° NNE 17:31:18 20° NE
Cosmos 2322 Rocket 2.2 17:23:25 10° NNW 17:29:03 57° ENE 17:34:41 10° SE
Cosmos 1933 Rocket 3.6 17:24:48 10° N 17:29:04 52° ENE 17:33:17 10° SSE
COSMOS 2428 4.3 17:25:51 10° N 17:28:44 17° NNE 17:28:44 17° NNE
USA 234 3.3 17:23:32 10° SE 17:30:06 84° SW 17:36:41 10° NW
Cosmos 2150 Rocket 3.9 17:25:39 10° NNW 17:30:52 85° ENE 17:36:06 10° SSE
Cosmos 1328 Rocket 3.7 17:26:57 10° SSW 17:31:22 76° W 17:35:50 10° N
Cosmos 1980 Rocket 4.0 17:26:59 10° NW 17:31:58 32° WSW 17:36:53 10° SSW
Cosmos 1470 Rocket 3.6 17:30:38 10° N 17:35:08 86° W 17:39:37 10° S
Cosmos 1544 2.8 17:31:37 10° N 17:35:14 78° E 17:38:52 10° SSE
Cosmos 1125 Rocket 3.4 17:31:48 10° NNW 17:37:06 88° ENE 17:42:22 10° SSE
Cosmos 1867 3.9 17:32:06 10° S 17:37:15 45° ESE 17:38:27 39° E
Cosmos 1812 4.2 17:33:45 10° SW 17:37:18 36° WNW 17:40:54 10° N
NOSS 3-3 (A) 4.4 17:32:28 10° S 17:37:32 35° ESE 17:38:22 34° E
NOSS 3-3 (C) 4.4 17:32:35 10° S 17:37:39 35° ESE 17:38:27 33° E
X-37B 2.0 17:35:47 10° SW 17:37:49 27° S 17:37:49 27° S
H-2A R/B 2.4 17:33:26 10° S 17:38:31 63° W 17:43:29 10° NNW
DEBRIS 4.2 17:36:43 10° S 17:38:35 25° SE 17:38:35 25° SE
Okean O Rocket 1.5 17:35:49 10° SSE 17:40:16 81° ENE 17:44:45 10° NNW
Meteor 1-10 Rocket 4.1 17:35:42 10° S 17:41:26 84° E 17:47:07 10° NNE
GEOS 3 Rocket 4.2 17:41:55 35° NE 17:42:15 36° NE 17:46:57 10° NNW
Meteor 1-11 Rocket 3.6 17:36:38 10° N 17:42:19 77° ENE 17:48:05 10° SSE
USA 32 4.0 17:38:21 10° SSE 17:43:27 57° E 17:46:22 25° NNE
USA 308 2.7 17:40:40 10° WNW 17:44:56 71° NNE 17:45:21 64° ENE
SL-16 R/B 2.2 17:43:59 10° NNW 17:49:41 80° WSW 17:55:20 10° SSE
SKYMED 2 3.5 17:47:47 28° N 17:50:05 82° WNW 17:54:25 10° SSW
ARGOS 3.2 17:44:56 10° SSE 17:50:21 83° WSW 17:55:47 10° NNW
Cosmos 2237 Rocket 4.4 17:48:59 10° N 17:49:04 10° NNE 17:49:04 10° NNE
Cosmos 2082 Rocket 3.6 17:47:15 10° WSW 17:52:22 33° NW 17:56:57 12° N
deb Chang Zheng 4 4.0 17:51:37 10° S 17:55:52 60° WSW 18:00:09 10° NNW
Cosmos 1241 Rocket 4.5 17:54:30 10° SSW 18:00:45 60° ESE 18:01:58 51° ENE
COSMOS 2455 4.3 17:55:45 10° WSW 18:01:01 31° NW 18:04:54 16° NNE
Feng Yun 1-1 Rocket 4.2 17:59:17 10° SSE 18:05:12 86° ENE 18:11:04 10° NNW
USA 305 3.1 18:05:00 10° WNW 18:08:52 70° W 18:08:52 70° W
Cosmos 2333 Rocket 3.0 18:04:10 10° NNW 18:08:05 35° NNE 18:08:05 35° NNE
Cosmos 1356 Rocket 4.2 18:05:41 10° NNW 18:09:48 53° W 18:13:57 10° S
CZ-2C R/B 3.1 18:06:50 14° N 18:11:09 58° WNW 18:16:12 10° SSW
Cosmos 2219 Rocket 3.5 18:12:08 10° NNW 18:15:04 27° N 18:15:04 27° N
Aureole 3 Rocket 3.6 18:13:07 10° SSW 18:17:42 80° W 18:24:19 10° N
Nadezhda 2 Rocket 4.4 18:18:10 10° N 18:24:24 70° ENE 18:24:24 70° ENE
COSMO-SKYMED 1 4.4 18:36:23 22° NNW 18:37:57 28° WNW 18:41:39 10° SW
USA 267 3.7 18:37:47 45° NNE 18:38:58 50° NNW 18:45:13 10° W
Meteor 1-27 Rocket 4.5 18:39:17 10° SSW 18:44:37 49° WNW 18:46:30 35° NNW
Cosmos 2360 Rocket 2.6 18:44:52 10° NNW 18:50:08 58° W 18:50:08 58° W
CZ-2C R/B 4.3 18:53:13 10° SW 18:53:23 10° SW 18:53:23 10° SW
Cosmos 2322 Rocket 4.2 19:08:09 10° NW 19:12:43 25° WSW 19:17:09 10° SSW
NOSS 3-4 (A) 4.4 19:11:33 10° NW 19:16:19 50° NW 19:16:19 50° NW
NOSS 3-4 (C) 4.4 19:11:39 10° NW 19:16:24 49° NW 19:16:24 49° NW
ATLAS 2AS CENTAUR R/B 4.0 19:14:40 10° NW 19:18:44 31° NNW 19:18:44 31° NNW
